Retour au catalogue

STARLINK-5362

ActifCommunicationsVLEO
NORAD 55493·PAYLOAD·🇺🇸 United States

Lancé Feb 2, 2023 depuis Cape Canaveral Space Force Station

Loading…

Prochains Passages (prochaines 24 heures)

TLE

FraisSource: CelesTrak SupGP

Époque: Sep 15, 2026, 01:43 UTC

1 55493C 23015AW  26258.07201389  .00002829  00000+0  10245-3 0  2583
2 55493  43.0024 350.0113 0001477 268.0522 357.6808 15.27577131    15

Suivez STARLINK-5362 en temps réel avec AllMySat

Download on the App Store